Time,TemperatureF,DewpointF,PressureIn,WindDirection,WindDirectionDegrees,WindSpeedMPH,WindSpeedGustMPH,Humidity,HourlyPrecipIn,Conditions,Clouds,dailyrainin,SoftwareType,DateUTC
2013-06-18 00:00:00,61.0,57.5,29.93,ENE,68,0.0,0.0,88,0.00,,,0.00,WUHU216HW,2013-06-18 04:00:00,
2013-06-18 00:01:00,61.0,57.5,29.93,ENE,68,0.0,0.0,88,0.00,,,0.00,WUHU216HW,2013-06-18 04:01:00,
2013-06-18 00:06:00,61.0,57.5,29.93,ENE,68,0.0,0.0,88,0.00,,,0.00,WUHU216HW,2013-06-18 04:06:00,
2013-06-18 00:30:00,60.5,57.2,29.94,ENE,68,0.0,0.0,89,0.00,,,0.00,WUHU216HW,2013-06-18 04:30:00,
2013-06-18 00:35:00,60.5,57.2,29.94,ENE,68,0.0,0.0,89,0.00,,,0.00,WUHU216HW,2013-06-18 04:35:00,
2013-06-18 01:00:00,60.5,57.2,29.93,ENE,68,0.0,0.0,89,0.00,,,0.00,WUHU216HW,2013-06-18 05:00:00,
2013-06-18 01:05:00,60.5,57.2,29.93,ENE,68,0.0,0.0,89,0.00,,,0.00,WUHU216HW,2013-06-18 05:05:00,
2013-06-18 01:30:00,59.9,56.7,29.93,ENE,68,0.0,0.0,89,0.00,,,0.00,WUHU216HW,2013-06-18 05:30:00,
2013-06-18 01:35:00,59.9,56.7,29.93,ENE,68,0.0,0.0,89,0.00,,,0.00,WUHU216HW,2013-06-18 05:35:00,
2013-06-18 02:00:00,59.9,56.7,29.93,ENE,68,0.0,0.0,89,0.00,,,0.00,WUHU216HW,2013-06-18 06:00:00,
2013-06-18 02:05:00,59.9,56.7,29.93,ENE,68,0.0,0.0,89,0.00,,,0.00,WUHU216HW,2013-06-18 06:05:00,
2013-06-18 02:30:00,60.1,57.2,29.94,ENE,68,0.0,0.0,90,0.00,,,0.00,WUHU216HW,2013-06-18 06:30:00,
2013-06-18 02:35:00,60.1,57.2,29.94,ENE,68,0.0,0.0,90,0.00,,,0.00,WUHU216HW,2013-06-18 06:35:00,
2013-06-18 03:00:00,59.8,56.9,29.93,ENE,68,0.0,0.0,90,0.00,,,0.00,WUHU216HW,2013-06-18 07:00:00,
2013-06-18 03:05:00,59.8,56.9,29.93,ENE,68,0.0,0.0,90,0.00,,,0.00,WUHU216HW,2013-06-18 07:05:00,
2013-06-18 03:30:00,59.6,56.7,29.94,NW,315,0.0,0.0,90,0.00,,,0.00,WUHU216HW,2013-06-18 07:30:00,
2013-06-18 03:35:00,59.6,56.7,29.94,NW,315,0.0,0.0,90,0.00,,,0.00,WUHU216HW,2013-06-18 07:35:00,
2013-06-18 04:00:00,59.4,56.5,29.93,NW,315,0.0,0.0,90,0.00,,,0.00,WUHU216HW,2013-06-18 08:00:00,
2013-06-18 04:05:00,59.4,56.5,29.93,NW,315,0.0,0.0,90,0.00,,,0.00,WUHU216HW,2013-06-18 08:05:00,
2013-06-18 04:30:00,58.9,56.0,29.93,NW,315,0.0,0.0,90,0.00,,,0.00,WUHU216HW,2013-06-18 08:30:00,
2013-06-18 04:35:00,58.9,56.0,29.93,NW,315,0.0,0.0,90,0.00,,,0.00,WUHU216HW,2013-06-18 08:35:00,
2013-06-18 05:00:00,58.7,55.8,29.93,NW,315,0.0,0.0,90,0.00,,,0.00,WUHU216HW,2013-06-18 09:00:00,
2013-06-18 05:05:00,58.7,55.8,29.93,NW,315,0.0,0.0,90,0.00,,,0.00,WUHU216HW,2013-06-18 09:05:00,
2013-06-18 05:30:00,58.3,55.4,29.93,NW,315,0.0,0.0,90,0.00,,,0.00,WUHU216HW,2013-06-18 09:30:00,
2013-06-18 05:35:00,58.3,55.4,29.93,NW,315,0.0,0.0,90,0.00,,,0.00,WUHU216HW,2013-06-18 09:35:00,
2013-06-18 06:00:00,58.7,55.8,29.93,NW,315,0.0,0.0,90,0.00,,,0.00,WUHU216HW,2013-06-18 10:00:00,
2013-06-18 06:05:00,58.7,55.8,29.93,NW,315,0.0,0.0,90,0.00,,,0.00,WUHU216HW,2013-06-18 10:05:00,
2013-06-18 06:30:00,59.2,56.3,29.95,NW,315,0.0,0.0,90,0.00,,,0.00,WUHU216HW,2013-06-18 10:30:00,
2013-06-18 06:35:00,59.2,56.3,29.95,NW,315,0.0,0.0,90,0.00,,,0.00,WUHU216HW,2013-06-18 10:35:00,
2013-06-18 07:00:00,60.7,58.1,29.96,NW,315,0.0,0.0,91,0.00,,,0.00,WUHU216HW,2013-06-18 11:00:00,
2013-06-18 07:05:00,60.7,58.1,29.96,NW,315,0.0,0.0,91,0.00,,,0.00,WUHU216HW,2013-06-18 11:05:00,
2013-06-18 07:30:00,62.1,59.5,29.96,ENE,68,0.0,0.0,91,0.00,,,0.00,WUHU216HW,2013-06-18 11:30:00,
2013-06-18 07:35:00,62.1,59.5,29.96,ENE,68,0.0,0.0,91,0.00,,,0.00,WUHU216HW,2013-06-18 11:35:00,
2013-06-18 08:00:00,63.9,61.3,29.97,ENE,68,0.2,0.2,91,0.00,,,0.00,WUHU216HW,2013-06-18 12:00:00,
2013-06-18 08:05:00,63.9,61.3,29.97,ENE,68,0.2,0.2,91,0.00,,,0.00,WUHU216HW,2013-06-18 12:05:00,
2013-06-18 08:30:00,65.5,62.2,29.98,ENE,68,0.0,0.0,89,0.00,,,0.00,WUHU216HW,2013-06-18 12:30:00,
2013-06-18 08:35:00,65.5,62.2,29.98,ENE,68,0.0,0.0,89,0.00,,,0.00,WUHU216HW,2013-06-18 12:35:00,
2013-06-18 09:00:00,67.3,63.3,29.98,West,270,0.4,0.4,87,0.00,,,0.00,WUHU216HW,2013-06-18 13:00:00,
2013-06-18 09:05:00,67.3,63.3,29.98,West,270,0.4,0.4,87,0.00,,,0.00,WUHU216HW,2013-06-18 13:05:00,
2013-06-18 09:30:00,68.9,64.3,29.98,ENE,68,0.0,0.0,85,0.00,,,0.00,WUHU216HW,2013-06-18 13:30:00,
2013-06-18 09:35:00,68.9,64.3,29.98,ENE,68,0.0,0.0,85,0.00,,,0.00,WUHU216HW,2013-06-18 13:35:00,
2013-06-18 10:00:00,70.4,64.3,29.97,NNE,23,1.1,1.1,81,0.00,,,0.00,WUHU216HW,2013-06-18 14:00:00,
2013-06-18 10:05:00,70.4,64.3,29.97,NNE,23,1.1,1.1,81,0.00,,,0.00,WUHU216HW,2013-06-18 14:05:00,
2013-06-18 10:30:00,71.5,64.6,29.97,South,180,0.4,0.4,79,0.00,,,0.00,WUHU216HW,2013-06-18 14:30:00,
2013-06-18 10:35:00,71.5,64.6,29.97,South,180,0.4,0.4,79,0.00,,,0.00,WUHU216HW,2013-06-18 14:35:00,
2013-06-18 11:00:00,72.4,64.7,29.97,NNE,23,0.9,0.9,77,0.00,,,0.00,WUHU216HW,2013-06-18 15:00:00,
2013-06-18 11:04:00,72.4,64.7,29.97,NNE,23,0.9,0.9,77,0.00,,,0.00,WUHU216HW,2013-06-18 15:04:00,
2013-06-18 11:30:00,73.1,65.4,29.97,NE,45,0.7,0.7,77,0.00,,,0.00,WUHU216HW,2013-06-18 15:30:00,
2013-06-18 11:35:00,73.1,65.4,29.97,NE,45,0.7,0.7,77,0.00,,,0.00,WUHU216HW,2013-06-18 15:35:00,
2013-06-18 12:00:00,74.7,65.9,29.96,ENE,68,0.0,0.0,74,0.00,,,0.00,WUHU216HW,2013-06-18 16:00:00,
2013-06-18 12:04:00,74.7,65.9,29.96,ENE,68,0.0,0.0,74,0.00,,,0.00,WUHU216HW,2013-06-18 16:04:00,
2013-06-18 12:30:00,74.9,65.6,29.96,NNE,23,0.0,0.0,73,0.00,,,0.00,WUHU216HW,2013-06-18 16:30:00,
2013-06-18 12:35:00,74.9,65.6,29.96,NNE,23,0.0,0.0,73,0.00,,,0.00,WUHU216HW,2013-06-18 16:35:00,
2013-06-18 13:00:00,75.8,66.2,29.95,ENE,68,0.0,0.0,72,0.00,,,0.00,WUHU216HW,2013-06-18 17:00:00,
2013-06-18 13:04:00,75.8,66.2,29.95,ENE,68,0.0,0.0,72,0.00,,,0.00,WUHU216HW,2013-06-18 17:04:00,
2013-06-18 13:30:00,73.8,64.6,29.95,North,0,0.2,0.2,73,0.00,,,0.00,WUHU216HW,2013-06-18 17:30:00,
2013-06-18 13:35:00,73.8,64.6,29.95,North,0,0.2,0.2,73,0.00,,,0.00,WUHU216HW,2013-06-18 17:35:00,
2013-06-18 14:00:00,71.3,62.6,29.95,East,90,1.6,1.6,74,0.00,,,0.00,WUHU216HW,2013-06-18 18:00:00,
2013-06-18 14:05:00,71.3,62.6,29.95,East,90,1.6,1.6,74,0.00,,,0.00,WUHU216HW,2013-06-18 18:05:00,
2013-06-18 14:30:00,67.1,60.8,29.97,East,90,1.1,1.1,80,0.00,,,0.00,WUHU216HW,2013-06-18 18:30:00,
2013-06-18 14:35:00,67.1,60.8,29.97,East,90,1.1,1.1,80,0.00,,,0.00,WUHU216HW,2013-06-18 18:35:00,
2013-06-18 15:00:00,64.1,59.5,29.95,North,0,0.7,0.7,85,0.00,,,0.00,WUHU216HW,2013-06-18 19:00:00,
2013-06-18 15:05:00,64.1,59.5,29.95,North,0,0.7,0.7,85,0.00,,,0.00,WUHU216HW,2013-06-18 19:05:00,
2013-06-18 15:30:00,63.0,58.4,29.96,NE,45,0.0,0.0,85,0.00,,,0.00,WUHU216HW,2013-06-18 19:30:00,
2013-06-18 15:35:00,63.0,58.4,29.96,NE,45,0.0,0.0,85,0.00,,,0.00,WUHU216HW,2013-06-18 19:35:00,
2013-06-18 16:00:00,62.5,58.9,29.97,WSW,248,1.1,1.1,88,0.00,,,0.00,WUHU216HW,2013-06-18 20:00:00,
2013-06-18 16:04:00,62.5,58.9,29.97,WSW,248,1.1,1.1,88,0.00,,,0.00,WUHU216HW,2013-06-18 20:04:00,
2013-06-18 16:30:00,62.3,58.4,29.98,WNW,293,0.0,0.0,87,0.00,,,0.00,WUHU216HW,2013-06-18 20:30:00,
2013-06-18 16:35:00,62.3,58.4,29.98,WNW,293,0.0,0.0,87,0.00,,,0.00,WUHU216HW,2013-06-18 20:35:00,
2013-06-18 17:00:00,62.6,59.0,29.98,NE,45,0.0,0.0,88,0.00,,,0.00,WUHU216HW,2013-06-18 21:00:00,
2013-06-18 17:05:00,62.6,59.0,29.98,NE,45,0.0,0.0,88,0.00,,,0.00,WUHU216HW,2013-06-18 21:05:00,
2013-06-18 17:30:00,62.6,59.0,29.96,SW,225,0.0,0.0,88,0.00,,,0.00,WUHU216HW,2013-06-18 21:30:00,
2013-06-18 17:35:00,62.6,59.0,29.96,SW,225,0.0,0.0,88,0.00,,,0.00,WUHU216HW,2013-06-18 21:35:00,
2013-06-18 18:00:00,62.1,58.9,29.97,North,0,0.0,0.0,89,0.00,,,0.00,WUHU216HW,2013-06-18 22:00:00,
2013-06-18 18:05:00,62.1,58.9,29.97,North,0,0.0,0.0,89,0.00,,,0.00,WUHU216HW,2013-06-18 22:05:00,
2013-06-18 18:30:00,61.7,58.5,29.97,West,270,0.0,0.0,89,0.00,,,0.00,WUHU216HW,2013-06-18 22:30:00,
2013-06-18 18:35:00,61.7,58.5,29.97,West,270,0.0,0.0,89,0.00,,,0.00,WUHU216HW,2013-06-18 22:35:00,
2013-06-18 19:00:00,61.6,58.7,29.96,North,0,0.0,0.0,90,0.00,,,0.00,WUHU216HW,2013-06-18 23:00:00,
2013-06-18 19:05:00,61.6,58.7,29.96,North,0,0.0,0.0,90,0.00,,,0.00,WUHU216HW,2013-06-18 23:05:00,
2013-06-18 19:30:00,61.2,58.3,29.96,ESE,113,0.0,0.0,90,0.00,,,0.00,WUHU216HW,2013-06-18 23:30:00,
2013-06-18 19:35:00,61.2,58.3,29.96,ESE,113,0.0,0.0,90,0.00,,,0.00,WUHU216HW,2013-06-18 23:35:00,
2013-06-18 20:00:00,60.8,58.0,29.96,ENE,68,0.0,0.0,90,0.00,,,0.00,WUHU216HW,2013-06-19 00:00:00,
2013-06-18 20:05:00,60.8,58.0,29.96,ENE,68,0.0,0.0,90,0.00,,,0.00,WUHU216HW,2013-06-19 00:05:00,
2013-06-18 20:30:00,60.5,57.6,29.95,ESE,113,0.0,0.0,90,0.00,,,0.00,WUHU216HW,2013-06-19 00:30:00,
2013-06-18 20:35:00,60.5,57.6,29.95,ESE,113,0.0,0.0,90,0.00,,,0.00,WUHU216HW,2013-06-19 00:35:00,
2013-06-18 21:00:00,60.1,57.2,29.96,East,90,0.0,0.0,90,0.00,,,0.00,WUHU216HW,2013-06-19 01:00:00,
2013-06-18 21:05:00,60.1,57.2,29.96,East,90,0.0,0.0,90,0.00,,,0.00,WUHU216HW,2013-06-19 01:05:00,
2013-06-18 21:30:00,59.6,56.7,29.97,WSW,248,0.0,0.0,90,0.00,,,0.00,WUHU216HW,2013-06-19 01:30:00,
2013-06-18 21:35:00,59.6,56.7,29.97,WSW,248,0.0,0.0,90,0.00,,,0.00,WUHU216HW,2013-06-19 01:35:00,
2013-06-18 22:00:00,59.2,56.6,29.98,NNW,338,0.0,0.0,91,0.00,,,0.00,WUHU216HW,2013-06-19 02:00:00,
2013-06-18 22:05:00,59.2,56.6,29.98,NNW,338,0.0,0.0,91,0.00,,,0.00,WUHU216HW,2013-06-19 02:05:00,
2013-06-18 22:30:00,59.0,56.4,29.98,NNW,338,0.0,0.0,91,0.00,,,0.00,WUHU216HW,2013-06-19 02:30:00,
2013-06-18 22:35:00,59.0,56.4,29.98,NNW,338,0.0,0.0,91,0.00,,,0.00,WUHU216HW,2013-06-19 02:35:00,
2013-06-18 23:00:00,59.0,56.2,29.97,NNW,338,0.0,0.0,90,0.00,,,0.00,WUHU216HW,2013-06-19 03:00:00,
2013-06-18 23:05:00,59.0,56.2,29.97,NNW,338,0.0,0.0,90,0.00,,,0.00,WUHU216HW,2013-06-19 03:05:00,
2013-06-18 23:30:00,58.9,56.3,29.97,West,270,0.0,0.0,91,0.00,,,0.00,WUHU216HW,2013-06-19 03:30:00,
2013-06-18 23:35:00,58.9,56.3,29.97,West,270,0.0,0.0,91,0.00,,,0.00,WUHU216HW,2013-06-19 03:35:00,